| time (UTC) | temp F | wind direction | speed MPH | gust MPH | rain 1hr in | rain 24hr in | rain mn in | humidity % | barometer mb |
| 20260903081517 | 75 | 175 | 0.0 | 0.0 | 0.00 | 0.00 | 0.00 | 1 | 1014.7 |
| 20260903080013 | 75 | 175 | 0.0 | 0.0 | 0.00 | 0.00 | 0.00 | 1 | 1014.8 |
| 20260903074508 | 75 | 175 | 0.0 | 0.0 | 0.00 | 0.00 | 0.00 | 1 | 1014.6 |
| 20260903073005 | 75 | 176 | 0.0 | 0.0 | 0.00 | 0.00 | 0.00 | 1 | 1014.7 |
| 20260903071601 | 75 | 176 | 0.0 | 0.0 | 0.00 | 0.00 | 0.00 | 1 | 1014.8 |
| 20260903070054 | 75 | 176 | 0.0 | 0.0 | 0.00 | 0.00 | 0.00 | 1 | 1014.8 |
| 20260903064550 | 75 | 176 | 0.0 | 0.0 | 0.00 | 0.00 | 0.00 | 1 | 1014.9 |
| 20260903063045 | 76 | 176 | 0.0 | 0.0 | 0.00 | 0.00 | 0.00 | 1 | 1014.9 |
| 20260903061551 | 76 | 180 | 0.0 | 0.0 | 0.00 | 0.00 | 0.00 | 1 | 1015.0 |
| 20260903060040 | 76 | 180 | 0.0 | 0.0 | 0.00 | 0.00 | 0.00 | 1 | 1015.0 |
| 20260903054533 | 76 | 180 | 0.0 | 0.0 | 0.00 | 0.00 | 0.00 | 1 | 1015.0 |
| 20260903053028 | 76 | 180 | 0.0 | 0.0 | 0.00 | 0.00 | 0.00 | 1 | 1014.8 |
| 20260903051523 | 77 | 180 | 0.0 | 0.0 | 0.00 | 0.00 | 0.00 | 1 | 1014.8 |
| 20260903050019 | 77 | 180 | 0.0 | 0.0 | 0.00 | 0.00 | 0.00 | 1 | 1014.5 |
| 20260903044515 | 77 | 180 | 0.0 | 0.0 | 0.00 | 0.00 | 0.00 | 1 | 1014.4 |
| 20260903043011 | 77 | 181 | 0.0 | 1.0 | 0.00 | 0.00 | 0.00 | 1 | 1014.2 |
| 20260903041506 | 77 | 227 | 0.0 | 0.0 | 0.00 | 0.00 | 0.00 | 1 | 1014.2 |
| 20260903040002 | 77 | 228 | 0.0 | 0.0 | 0.00 | 0.00 | 0.00 | 1 | 1014.0 |
| 20260903034503 | 77 | 228 | 0.0 | 0.0 | 0.00 | 0.00 | 0.00 | 1 | 1014.2 |
| 20260903033001 | 77 | 228 | 0.0 | 0.0 | 0.00 | 0.00 | 0.00 | 1 | 1014.3 |
| 20260903031600 | 77 | 229 | 0.0 | 0.0 | 0.00 | 0.00 | 0.00 | 1 | 1014.3 |
| 20260903030056 | 77 | 229 | 0.0 | 0.0 | 0.00 | 0.00 | 0.00 | 1 | 1014.7 |
| 20260903024553 | 78 | 229 | 0.0 | 0.0 | 0.00 | 0.00 | 0.00 | 1 | 1014.7 |
| 20260903023102 | 78 | 229 | 0.0 | 0.0 | 0.00 | 0.00 | 0.00 | 1 | 1014.6 |
| 20260903021542 | 78 | 229 | 0.0 | 0.0 | 0.00 | 0.00 | 0.00 | 1 | 1014.8 |
| 20260903020050 | 78 | 229 | 0.0 | 0.0 | 0.00 | 0.00 | 0.00 | 1 | 1014.9 |
| 20260903014535 | 79 | 229 | 0.0 | 0.0 | 0.00 | 0.00 | 0.00 | 1 | 1014.9 |
| 20260903013028 | 79 | 229 | 0.0 | 0.0 | 0.00 | 0.00 | 0.00 | 2 | 1014.7 |
| 20260903011524 | 80 | 229 | 0.0 | 0.0 | 0.00 | 0.00 | 0.00 | 15 | 1014.6 |
| 20260903010020 | 81 | 229 | 0.0 | 0.0 | 0.00 | 0.00 | 0.00 | 27 | 1014.5 |
| 20260903004516 | 82 | 229 | 0.0 | 0.0 | 0.00 | 0.00 | 0.00 | 36 | 1014.1 |
| 20260903003010 | 83 | 229 | 0.0 | 0.0 | 0.00 | 0.00 | 0.00 | 43 | 1014.1 |
| 20260903001506 | 84 | 202 | 0.0 | 0.0 | 0.00 | 0.00 | 0.00 | 47 | 1014.2 |
| 20260903000002 | 85 | 203 | 0.0 | 2.0 | 0.00 | 0.00 | 0.00 | 51 | 1014.0 |
| 20260902234606 | 86 | 257 | 0.0 | 0.0 | 0.00 | 0.00 | 0.00 | 53 | 1013.9 |
| 20260902233053 | 87 | 257 | 0.0 | 2.0 | 0.00 | 0.00 | 0.00 | 54 | 1013.9 |
| 20260902231549 | 88 | 252 | 0.0 | 2.0 | 0.00 | 0.00 | 0.00 | 54 | 1014.0 |
| 20260902230049 | 88 | 241 | 0.0 | 5.0 | 0.00 | 0.00 | 0.00 | 54 | 1014.0 |
| 20260902224547 | 89 | 277 | 1.0 | 6.0 | 0.00 | 0.00 | 0.00 | 54 | 1013.9 |
| 20260902223042 | 89 | 232 | 1.0 | 7.0 | 0.00 | 0.00 | 0.00 | 54 | 1014.1 |
| 20260902221538 | 89 | 204 | 0.0 | 7.0 | 0.00 | 0.00 | 0.00 | 54 | 1014.0 |
| 20260902220034 | 90 | 186 | 0.0 | 9.0 | 0.00 | 0.00 | 0.00 | 54 | 1014.0 |
| 20260902214531 | 90 | 257 | 1.0 | 7.0 | 0.00 | 0.00 | 0.00 | 52 | 1014.2 |
| 20260902213029 | 91 | 144 | 2.0 | 10.0 | 0.00 | 0.00 | 0.00 | 50 | 1014.0 |
| 20260902211520 | 91 | 254 | 0.0 | 8.0 | 0.00 | 0.00 | 0.00 | 53 | 1014.1 |
| 20260902210020 | 91 | 206 | 1.0 | 7.0 | 0.00 | 0.00 | 0.00 | 54 | 1014.1 |
| 20260902204512 | 91 | 202 | 1.0 | 7.0 | 0.00 | 0.00 | 0.00 | 53 | 1014.4 |
| 20260902203006 | 90 | 277 | 1.0 | 6.0 | 0.00 | 0.00 | 0.00 | 53 | 1014.4 |
| 20260902201505 | 91 | 244 | 1.0 | 8.0 | 0.00 | 0.00 | 0.00 | 53 | 1014.7 |
| 20260902200058 | 90 | 297 | 0.0 | 6.0 | 0.00 | 0.00 | 0.00 | 53 | 1014.7 |
| 20260902194555 | 90 | 275 | 0.0 | 4.0 | 0.00 | 0.00 | 0.00 | 54 | 1014.9 |
| 20260902193051 | 90 | 277 | 1.0 | 5.0 | 0.00 | 0.00 | 0.00 | 54 | 1014.9 |
| 20260902191544 | 91 | 264 | 0.0 | 2.0 | 0.00 | 0.00 | 0.00 | 54 | 1015.3 |
| 20260902190040 | 90 | 234 | 0.0 | 8.0 | 0.00 | 0.00 | 0.00 | 54 | 1015.4 |
| 20260902184535 | 91 | 250 | 0.0 | 7.0 | 0.00 | 0.01 | 0.00 | 53 | 1015.4 |
| 20260902183031 | 91 | 238 | 1.0 | 8.0 | 0.00 | 0.01 | 0.00 | 53 | 1015.5 |
| 20260902181526 | 90 | 272 | 1.0 | 5.0 | 0.00 | 0.01 | 0.00 | 53 | 1015.7 |
| 20260902180021 | 90 | 271 | 0.0 | 4.0 | 0.00 | 0.01 | 0.00 | 53 | 1016.0 |
| 20260902174517 | 90 | 309 | 1.0 | 7.0 | 0.00 | 0.08 | 0.00 | 53 | 1016.2 |
| 20260902173018 | 90 | 271 | 1.0 | 4.0 | 0.00 | 0.08 | 0.00 | 53 | 1016.4 |
| 20260902171507 | 89 | 271 | 0.0 | 5.0 | 0.00 | 0.08 | 0.00 | 51 | 1016.6 |
| 20260902170003 | 89 | 231 | 0.0 | 3.0 | 0.00 | 0.08 | 0.00 | 50 | 1016.5 |
| 20260902164600 | 88 | 195 | 0.0 | 4.0 | 0.00 | 0.08 | 0.00 | 48 | 1016.7 |
| 20260902163055 | 88 | 206 | 1.0 | 7.0 | 0.00 | 0.08 | 0.00 | 47 | 1016.7 |
| 20260902161551 | 87 | 178 | 2.0 | 5.0 | 0.00 | 0.08 | 0.00 | 44 | 1016.7 |
| 20260902154540 | 86 | 188 | 0.0 | 6.0 | 0.00 | 0.09 | 0.00 | 30 | 1017.3 |
| 20260902153035 | 85 | 220 | 0.0 | 5.0 | 0.00 | 0.09 | 0.00 | 28 | 1017.2 |
| 20260902151531 | 84 | 245 | 0.0 | 3.0 | 0.00 | 0.09 | 0.00 | 23 | 1017.3 |
| 20260902150026 | 83 | 202 | 0.0 | 5.0 | 0.00 | 0.09 | 0.00 | 25 | 1017.3 |
| 20260902144521 | 83 | 248 | 0.0 | 3.0 | 0.00 | 0.09 | 0.00 | 6 | 1017.2 |
| 20260902143017 | 82 | 230 | 0.0 | 4.0 | 0.00 | 0.09 | 0.00 | 10 | 1017.3 |
| 20260902141513 | 81 | 250 | 0.0 | 0.0 | 0.00 | 0.09 | 0.00 | 1 | 1017.3 |
| 20260902140008 | 81 | 235 | 0.0 | 4.0 | 0.00 | 0.09 | 0.00 | 1 | 1017.1 |
| 20260902134504 | 80 | 232 | 0.0 | 3.0 | 0.00 | 0.09 | 0.00 | 1 | 1017.2 |
| 20260902133108 | 79 | 252 | 0.0 | 4.0 | 0.00 | 0.09 | 0.00 | 1 | 1017.2 |
| 20260902131555 | 78 | 197 | 0.0 | 0.0 | 0.00 | 0.09 | 0.00 | 1 | 1017.2 |
| 20260902130050 | 78 | 222 | 0.0 | 6.0 | 0.00 | 0.09 | 0.00 | 1 | 1017.2 |
| 20260902124546 | 76 | 251 | 1.0 | 6.0 | 0.00 | 0.09 | 0.00 | 1 | 1017.1 |
| 20260902123047 | 75 | 175 | 0.0 | 0.0 | 0.00 | 0.09 | 0.00 | 1 | 1016.8 |
| 20260902121537 | 74 | 196 | 0.0 | 0.0 | 0.00 | 0.09 | 0.00 | 1 | 1016.8 |
| 20260902120041 | 73 | 170 | 0.0 | 0.0 | 0.00 | 0.09 | 0.00 | 1 | 1016.7 |
| 20260902114536 | 73 | 164 | 0.0 | 0.0 | 0.00 | 0.09 | 0.00 | 1 | 1016.8 |
| 20260902113024 | 73 | 150 | 0.0 | 0.0 | 0.00 | 0.09 | 0.00 | 1 | 1016.6 |
| 20260902111535 | 72 | 143 | 0.0 | 1.0 | 0.00 | 0.09 | 0.00 | 1 | 1016.5 |
| 20260902110035 | 72 | 174 | 0.0 | 0.0 | 0.00 | 0.09 | 0.00 | 1 | 1016.4 |
| 20260902104510 | 72 | 170 | 0.0 | 0.0 | 0.00 | 0.09 | 0.00 | 1 | 1016.3 |
| 20260902103007 | 72 | 170 | 0.0 | 0.0 | 0.00 | 0.09 | 0.00 | 1 | 1016.2 |
| 20260902101602 | 72 | 179 | 0.0 | 0.0 | 0.00 | 0.09 | 0.00 | 1 | 1016.3 |
| 20260902100057 | 72 | 186 | 0.0 | 0.0 | 0.00 | 0.09 | 0.00 | 1 | 1016.3 |
| 20260902094554 | 72 | 185 | 0.0 | 0.0 | 0.00 | 0.09 | 0.00 | 1 | 1016.3 |
| 20260902093048 | 72 | 185 | 0.0 | 0.0 | 0.00 | 0.09 | 0.00 | 1 | 1016.5 |
| 20260902091544 | 72 | 186 | 0.0 | 0.0 | 0.00 | 0.09 | 0.00 | 1 | 1016.1 |
| 20260902090038 | 72 | 186 | 0.0 | 0.0 | 0.00 | 0.09 | 0.00 | 1 | 1016.3 |
| 20260902084540 | 72 | 186 | 0.0 | 0.0 | 0.00 | 0.09 | 0.00 | 1 | 1016.3 |
| 20260902083029 | 73 | 186 | 0.0 | 0.0 | 0.00 | 0.09 | 0.00 | 1 | 1016.1 |